| time (UTC) | temp F | wind direction | speed knots | gust knots | rain 1hr in | rain 24hr in | rain mn in | humidity % | barometer mb |
| 20260510054522 | 51 | 0.0 | 0.0 | 0.00 | 0.00 | 0.00 | 1 | 1006.3 | |
| 20260510053032 | 51 | 0.0 | 0.0 | 0.00 | 0.00 | 0.00 | 1 | 1005.8 | |
| 20260510051601 | 51 | 0.0 | 0.0 | 0.00 | 0.00 | 0.00 | 1 | 1005.6 | |
| 20260510050058 | 51 | 0.0 | 0.0 | 0.00 | 0.00 | 0.00 | 1 | 1005.4 | |
| 20260510044555 | 51 | 0.0 | 0.0 | 0.00 | 0.00 | 0.00 | 1 | 1005.3 | |
| 20260510043053 | 51 | 0.0 | 0.0 | 0.00 | 0.00 | 0.00 | 1 | 1005.2 | |
| 20260510041543 | 51 | 0.0 | 0.0 | 0.00 | 0.00 | 0.00 | 1 | 1005.4 | |
| 20260510040045 | 51 | 0.0 | 0.0 | 0.00 | 0.00 | 0.00 | 1 | 1005.5 | |
| 20260510034542 | 51 | 0.0 | 0.0 | 0.00 | 0.00 | 0.00 | 1 | 1005.5 | |
| 20260510033055 | 51 | 0.0 | 0.0 | 0.00 | 0.00 | 0.00 | 1 | 1005.4 | |
| 20260510031540 | 51 | 0.0 | 0.0 | 0.00 | 0.00 | 0.00 | 1 | 1005.4 | |
| 20260510030045 | 51 | 0.0 | 0.0 | 0.00 | 0.00 | 0.00 | 1 | 1005.2 | |
| 20260510024535 | 51 | 0.0 | 0.0 | 0.00 | 0.00 | 0.00 | 1 | 1005.3 | |
| 20260510023034 | 51 | 0.0 | 0.0 | 0.00 | 0.00 | 0.00 | 1 | 1005.5 | |
| 20260510021535 | 51 | 0.0 | 0.0 | 0.00 | 0.00 | 0.00 | 1 | 1005.5 | |
| 20260510020034 | 51 | 0.0 | 0.0 | 0.00 | 0.00 | 0.00 | 1 | 1005.4 | |
| 20260510014535 | 51 | 0.0 | 0.0 | 0.00 | 0.00 | 0.00 | 1 | 1005.4 | |
| 20260510013031 | 51 | 0.0 | 0.0 | 0.00 | 0.00 | 0.00 | 1 | 1005.6 | |
| 20260510011531 | 51 | 0.0 | 0.0 | 0.00 | 0.00 | 0.00 | 1 | 1005.1 | |
| 20260510010029 | 51 | 0.0 | 0.0 | 0.00 | 0.00 | 0.00 | 1 | 1005.2 | |
| 20260510004528 | 51 | 0.0 | 0.0 | 0.00 | 0.00 | 0.00 | 1 | 1005.0 | |
| 20260510003026 | 51 | 0.0 | 0.0 | 0.00 | 0.00 | 0.00 | 1 | 1005.1 | |
| 20260510001524 | 51 | 0.0 | 0.0 | 0.00 | 0.00 | 0.00 | 1 | 1005.2 | |
| 20260510000020 | 51 | 0.0 | 0.0 | 0.00 | 0.00 | 0.00 | 1 | 1004.9 | |
| 20260509234555 | 51 | 0.0 | 0.0 | 0.00 | 0.00 | 0.00 | 1 | 1004.6 | |
| 20260509233046 | 51 | 0.0 | 0.0 | 0.00 | 0.00 | 0.00 | 1 | 1004.5 | |
| 20260509231506 | 51 | 0.0 | 0.0 | 0.00 | 0.00 | 0.00 | 1 | 1004.5 | |
| 20260509230002 | 51 | 0.0 | 0.0 | 0.00 | 0.00 | 0.00 | 1 | 1004.4 | |
| 20260509224528 | 51 | 0.0 | 0.0 | 0.00 | 0.00 | 0.00 | 1 | 1004.4 | |
| 20260509223024 | 50 | 0.0 | 0.0 | 0.00 | 0.00 | 0.00 | 1 | 1004.4 | |
| 20260509221518 | 50 | 0.0 | 0.0 | 0.00 | 0.00 | 0.00 | 1 | 1004.3 | |
| 20260509220013 | 50 | 0.0 | 0.0 | 0.00 | 0.00 | 0.00 | 1 | 1004.5 | |
| 20260509214508 | 50 | 0.0 | 0.0 | 0.00 | 0.00 | 0.00 | 1 | 1004.7 | |
| 20260509213004 | 49 | 0.0 | 0.0 | 0.00 | 0.00 | 0.00 | 1 | 1004.9 | |
| 20260509211605 | 49 | 0.0 | 0.0 | 0.00 | 0.00 | 0.00 | 1 | 1005.0 | |
| 20260509210053 | 49 | 0.0 | 0.0 | 0.00 | 0.00 | 0.00 | 1 | 1005.0 | |
| 20260509204550 | 49 | 0.0 | 0.0 | 0.00 | 0.00 | 0.00 | 1 | 1005.1 | |
| 20260509203046 | 49 | 0.0 | 0.0 | 0.00 | 0.00 | 0.00 | 1 | 1005.2 | |
| 20260509201551 | 48 | 0.0 | 0.0 | 0.00 | 0.00 | 0.00 | 1 | 1005.3 | |
| 20260509200038 | 48 | 0.0 | 0.0 | 0.00 | 0.00 | 0.00 | 1 | 1005.6 | |
| 20260509194532 | 48 | 0.0 | 0.0 | 0.00 | 0.00 | 0.00 | 1 | 1005.8 | |
| 20260509193034 | 48 | 0.0 | 0.0 | 0.00 | 0.00 | 0.00 | 1 | 1006.0 | |
| 20260509191552 | 48 | 0.0 | 0.0 | 0.00 | 0.00 | 0.00 | 1 | 1005.8 | |
| 20260509190048 | 47 | 0.0 | 0.0 | 0.00 | 0.00 | 0.00 | 1 | 1006.0 | |
| 20260509184550 | 47 | 0.0 | 0.0 | 0.00 | 0.00 | 0.00 | 1 | 1006.0 | |
| 20260509183039 | 47 | 0.0 | 0.0 | 0.00 | 0.00 | 0.00 | 1 | 1006.1 | |
| 20260509181543 | 47 | 0.0 | 0.0 | 0.00 | 0.00 | 0.00 | 1 | 1006.1 | |
| 20260509180032 | 47 | 0.0 | 0.0 | 0.00 | 0.00 | 0.00 | 1 | 1006.1 | |
| 20260509174526 | 47 | 0.0 | 0.0 | 0.00 | 0.00 | 0.00 | 1 | 1006.2 | |
| 20260509173020 | 46 | 0.0 | 0.0 | 0.00 | 0.00 | 0.00 | 1 | 1006.4 | |
| 20260509171526 | 46 | 0.0 | 0.0 | 0.00 | 0.00 | 0.00 | 1 | 1006.5 | |
| 20260509170011 | 46 | 0.0 | 0.0 | 0.00 | 0.00 | 0.00 | 1 | 1006.6 | |
| 20260509164506 | 46 | 0.0 | 0.0 | 0.00 | 0.00 | 0.00 | 1 | 1006.8 | |
| 20260509163117 | 46 | 0.0 | 0.0 | 0.00 | 0.00 | 0.00 | 1 | 1007.0 | |
| 20260509161555 | 46 | 0.0 | 0.0 | 0.00 | 0.00 | 0.00 | 1 | 1007.1 | |
| 20260509160051 | 45 | 0.0 | 0.0 | 0.00 | 0.00 | 0.00 | 1 | 1007.3 | |
| 20260509154549 | 45 | 0.0 | 0.0 | 0.00 | 0.00 | 0.00 | 1 | 1007.9 | |
| 20260509153040 | 45 | 0.0 | 0.0 | 0.00 | 0.00 | 0.00 | 1 | 1008.0 | |
| 20260509151535 | 44 | 0.0 | 0.0 | 0.00 | 0.00 | 0.00 | 1 | 1007.9 | |
| 20260509150030 | 44 | 0.0 | 0.0 | 0.00 | 0.00 | 0.00 | 1 | 1008.1 | |
| 20260509144533 | 44 | 0.0 | 0.0 | 0.00 | 0.00 | 0.00 | 1 | 1008.2 | |
| 20260509143024 | 44 | 0.0 | 0.0 | 0.00 | 0.00 | 0.00 | 1 | 1007.9 | |
| 20260509141521 | 44 | 0.0 | 0.0 | 0.00 | 0.00 | 0.00 | 1 | 1008.0 | |
| 20260509140009 | 44 | 0.0 | 0.0 | 0.00 | 0.00 | 0.00 | 1 | 1008.0 | |
| 20260509134506 | 43 | 0.0 | 0.0 | 0.00 | 0.00 | 0.00 | 1 | 1008.0 | |
| 20260509133059 | 43 | 0.0 | 0.0 | 0.00 | 0.00 | 0.00 | 1 | 1008.1 | |
| 20260509131555 | 43 | 0.0 | 0.0 | 0.00 | 0.00 | 0.00 | 1 | 1008.2 | |
| 20260509130057 | 43 | 0.0 | 0.0 | 0.00 | 0.00 | 0.00 | 1 | 1008.2 | |
| 20260509124603 | 42 | 0.0 | 0.0 | 0.00 | 0.00 | 0.00 | 1 | 1008.3 | |
| 20260509123012 | 42 | 0.0 | 0.0 | 0.00 | 0.00 | 0.00 | 1 | 1008.2 | |
| 20260509121517 | 43 | 0.0 | 0.0 | 0.00 | 0.00 | 0.00 | 1 | 1008.4 | |
| 20260509120108 | 43 | 0.0 | 0.0 | 0.00 | 0.00 | 0.00 | 14 | 1008.4 | |
| 20260509114603 | 43 | 0.0 | 0.0 | 0.00 | 0.00 | 0.00 | 27 | 1008.6 | |
| 20260509113052 | 44 | 0.0 | 0.0 | 0.00 | 0.00 | 0.00 | 37 | 1008.7 | |
| 20260509111547 | 43 | 0.0 | 0.0 | 0.00 | 0.00 | 0.00 | 40 | 1008.5 | |
| 20260509110040 | 43 | 0.0 | 0.0 | 0.00 | 0.00 | 0.00 | 41 | 1008.4 | |
| 20260509104538 | 42 | 0.0 | 0.0 | 0.00 | 0.00 | 0.00 | 43 | 1008.2 | |
| 20260509103032 | 41 | 0.0 | 0.0 | 0.00 | 0.00 | 0.00 | 40 | 1008.0 | |
| 20260509101527 | 41 | 0.0 | 0.0 | 0.00 | 0.00 | 0.00 | 45 | 1008.0 | |
| 20260509100030 | 40 | 0.0 | 0.0 | 0.00 | 0.00 | 0.00 | 45 | 1008.5 | |
| 20260509094521 | 40 | 0.0 | 0.0 | 0.00 | 0.00 | 0.00 | 44 | 1008.4 | |
| 20260509093012 | 40 | 0.0 | 0.0 | 0.00 | 0.00 | 0.00 | 39 | 1008.4 | |
| 20260509091507 | 39 | 0.0 | 0.0 | 0.00 | 0.00 | 0.00 | 36 | 1008.7 | |
| 20260509090108 | 38 | 0.0 | 0.0 | 0.00 | 0.00 | 0.00 | 26 | 1008.6 | |
| 20260509084600 | 38 | 0.0 | 0.0 | 0.00 | 0.00 | 0.00 | 14 | 1008.7 | |
| 20260509083051 | 37 | 0.0 | 0.0 | 0.00 | 0.00 | 0.00 | 1 | 1008.6 | |
| 20260509081549 | 37 | 0.0 | 0.0 | 0.00 | 0.00 | 0.00 | 1 | 1008.6 | |
| 20260509080043 | 37 | 0.0 | 0.0 | 0.00 | 0.00 | 0.00 | 1 | 1008.4 | |
| 20260509074538 | 37 | 0.0 | 0.0 | 0.00 | 0.00 | 0.00 | 10 | 1008.4 | |
| 20260509073032 | 37 | 0.0 | 0.0 | 0.00 | 0.00 | 0.00 | 20 | 1008.4 | |
| 20260509071528 | 38 | 0.0 | 0.0 | 0.00 | 0.00 | 0.00 | 32 | 1008.2 | |
| 20260509070025 | 38 | 0.0 | 0.0 | 0.00 | 0.00 | 0.00 | 45 | 1008.2 | |
| 20260509064522 | 39 | 0.0 | 0.0 | 0.00 | 0.00 | 0.00 | 47 | 1008.4 | |
| 20260509063020 | 39 | 0.0 | 0.0 | 0.00 | 0.00 | 0.00 | 45 | 1008.5 | |
| 20260509061519 | 40 | 0.0 | 0.0 | 0.00 | 0.00 | 0.00 | 46 | 1008.7 | |
| 20260509060018 | 41 | 0.0 | 0.0 | 0.00 | 0.00 | 0.00 | 52 | 1008.9 |